| time (UTC) | temp F | wind direction | speed knots | gust knots | rain 1hr in | rain 24hr in | rain mn in | humidity % | barometer mb |
| 20260508043839 | 46 | 135 | 0.0 | 0.9 | 0.00 | 0.00 | 0.00 | 56 | 1012.5 |
| 20260508043337 | 47 | 138 | 0.0 | 0.0 | 0.00 | 0.00 | 0.00 | 57 | 1012.6 |
| 20260508042833 | 47 | 133 | 0.0 | 0.0 | 0.00 | 0.00 | 0.00 | 55 | 1012.6 |
| 20260508042331 | 47 | 84 | 0.0 | 2.6 | 0.00 | 0.00 | 0.00 | 55 | 1012.4 |
| 20260508041827 | 48 | 128 | 0.9 | 2.6 | 0.00 | 0.00 | 0.00 | 55 | 1012.6 |
| 20260508041324 | 47 | 214 | 2.6 | 5.2 | 0.00 | 0.00 | 0.00 | 54 | 1012.3 |
| 20260508040820 | 47 | 302 | 1.7 | 1.7 | 0.00 | 0.00 | 0.00 | 56 | 1012.2 |
| 20260508040318 | 47 | 185 | 0.0 | 4.3 | 0.00 | 0.00 | 0.00 | 55 | 1012.2 |
| 20260508035815 | 48 | 270 | 3.5 | 4.3 | 0.00 | 0.00 | 0.00 | 53 | 1012.1 |
| 20260508035312 | 48 | 87 | 0.9 | 1.7 | 0.00 | 0.00 | 0.00 | 55 | 1012.3 |
| 20260508034809 | 49 | 259 | 1.7 | 1.7 | 0.00 | 0.00 | 0.00 | 54 | 1012.2 |
| 20260508034306 | 49 | 276 | 1.7 | 1.7 | 0.00 | 0.00 | 0.00 | 53 | 1011.8 |
| 20260508033803 | 48 | 170 | 0.9 | 4.3 | 0.00 | 0.00 | 0.00 | 51 | 1012.0 |
| 20260508033301 | 48 | 135 | 0.0 | 0.9 | 0.00 | 0.00 | 0.00 | 56 | 1011.8 |
| 20260508032758 | 48 | 288 | 0.0 | 2.6 | 0.00 | 0.00 | 0.00 | 53 | 1011.8 |
| 20260508032255 | 48 | 264 | 1.7 | 1.7 | 0.00 | 0.00 | 0.00 | 55 | 1011.8 |
| 20260508031752 | 48 | 251 | 1.7 | 1.7 | 0.00 | 0.00 | 0.00 | 55 | 1011.8 |
| 20260508031249 | 48 | 227 | 0.0 | 0.0 | 0.00 | 0.00 | 0.00 | 55 | 1011.7 |
| 20260508030745 | 48 | 249 | 0.0 | 0.0 | 0.00 | 0.00 | 0.00 | 55 | 1011.7 |
| 20260508030243 | 48 | 198 | 0.0 | 0.0 | 0.00 | 0.00 | 0.00 | 56 | 1011.5 |
| 20260508025739 | 50 | 155 | 0.0 | 1.7 | 0.00 | 0.00 | 0.00 | 52 | 1011.3 |
| 20260508025236 | 48 | 262 | 1.7 | 4.3 | 0.00 | 0.00 | 0.00 | 55 | 1011.4 |
| 20260508024732 | 49 | 269 | 1.7 | 1.7 | 0.00 | 0.00 | 0.00 | 56 | 1011.4 |
| 20260508024229 | 49 | 282 | 0.9 | 1.7 | 0.00 | 0.00 | 0.00 | 54 | 1011.3 |
| 20260508023726 | 49 | 306 | 2.6 | 2.6 | 0.00 | 0.00 | 0.00 | 55 | 1011.4 |
| 20260508023224 | 49 | 184 | 0.0 | 1.7 | 0.00 | 0.00 | 0.00 | 56 | 1011.3 |
| 20260508022719 | 50 | 122 | 0.0 | 0.0 | 0.00 | 0.00 | 0.00 | 58 | 1011.2 |
| 20260508022216 | 50 | 300 | 0.9 | 2.6 | 0.00 | 0.00 | 0.00 | 57 | 1011.5 |
| 20260508021713 | 50 | 243 | 0.9 | 1.7 | 0.00 | 0.00 | 0.00 | 55 | 1011.2 |
| 20260508021208 | 50 | 260 | 0.9 | 1.7 | 0.00 | 0.00 | 0.00 | 57 | 1011.2 |
| 20260508020706 | 50 | 278 | 1.7 | 1.7 | 0.00 | 0.00 | 0.00 | 57 | 1011.3 |
| 20260508020203 | 50 | 115 | 0.9 | 4.3 | 0.00 | 0.00 | 0.00 | 56 | 1011.2 |
| 20260508015700 | 50 | 278 | 0.0 | 0.0 | 0.00 | 0.00 | 0.00 | 58 | 1011.5 |
| 20260508015157 | 50 | 194 | 0.0 | 0.0 | 0.00 | 0.00 | 0.00 | 57 | 1011.0 |
| 20260508014653 | 50 | 240 | 0.9 | 1.7 | 0.00 | 0.00 | 0.00 | 59 | 1011.1 |
| 20260508014149 | 50 | 218 | 1.7 | 1.7 | 0.00 | 0.00 | 0.00 | 55 | 1011.1 |
| 20260508013646 | 50 | 213 | 0.0 | 0.0 | 0.00 | 0.00 | 0.00 | 58 | 1011.1 |
| 20260508013142 | 51 | 186 | 0.9 | 7.0 | 0.00 | 0.00 | 0.00 | 54 | 1010.7 |
| 20260508012640 | 50 | 181 | 2.6 | 4.3 | 0.00 | 0.00 | 0.00 | 56 | 1010.7 |
| 20260508012137 | 50 | 231 | 1.7 | 1.7 | 0.00 | 0.00 | 0.00 | 57 | 1010.7 |
| 20260508011636 | 51 | 296 | 2.6 | 2.6 | 0.00 | 0.00 | 0.00 | 56 | 1010.6 |
| 20260508011133 | 50 | 288 | 1.7 | 4.3 | 0.00 | 0.00 | 0.00 | 57 | 1010.5 |
| 20260508010629 | 51 | 142 | 0.0 | 1.7 | 0.00 | 0.00 | 0.00 | 56 | 1010.4 |
| 20260508010128 | 51 | 172 | 0.0 | 0.9 | 0.00 | 0.00 | 0.00 | 57 | 1010.4 |
| 20260508005624 | 51 | 317 | 0.9 | 1.7 | 0.00 | 0.00 | 0.00 | 56 | 1010.0 |
| 20260508005120 | 51 | 277 | 0.9 | 1.7 | 0.00 | 0.00 | 0.00 | 57 | 1010.1 |
| 20260508004616 | 52 | 264 | 0.9 | 2.6 | 0.00 | 0.00 | 0.00 | 55 | 1010.1 |
| 20260508004113 | 52 | 205 | 1.7 | 1.7 | 0.00 | 0.00 | 0.00 | 54 | 1010.1 |
| 20260508003609 | 51 | 277 | 0.0 | 0.0 | 0.00 | 0.00 | 0.00 | 58 | 1010.1 |
| 20260508003107 | 52 | 223 | 0.0 | 1.7 | 0.00 | 0.00 | 0.00 | 55 | 1010.0 |
| 20260508002603 | 53 | 163 | 0.9 | 4.3 | 0.00 | 0.00 | 0.00 | 54 | 1010.0 |
| 20260508002101 | 53 | 162 | 0.9 | 2.6 | 0.00 | 0.00 | 0.00 | 53 | 1009.9 |
| 20260508001556 | 53 | 164 | 0.0 | 2.6 | 0.00 | 0.00 | 0.00 | 53 | 1010.1 |
| 20260508001053 | 54 | 166 | 1.7 | 2.6 | 0.00 | 0.00 | 0.00 | 52 | 1009.9 |
| 20260508000548 | 54 | 217 | 0.9 | 1.7 | 0.00 | 0.00 | 0.00 | 50 | 1009.7 |
| 20260508000046 | 54 | 139 | 0.0 | 0.9 | 0.00 | 0.00 | 0.00 | 53 | 1009.6 |
| 20260507235543 | 54 | 141 | 0.9 | 2.6 | 0.00 | 0.00 | 0.00 | 50 | 1009.5 |
| 20260507235040 | 54 | 155 | 0.0 | 1.7 | 0.00 | 0.00 | 0.00 | 49 | 1009.6 |
| 20260507234536 | 54 | 130 | 1.7 | 4.3 | 0.00 | 0.00 | 0.00 | 48 | 1009.3 |
| 20260507234033 | 55 | 287 | 0.9 | 1.7 | 0.00 | 0.00 | 0.00 | 51 | 1009.3 |
| 20260507233530 | 55 | 106 | 0.0 | 2.6 | 0.00 | 0.00 | 0.00 | 48 | 1009.4 |
| 20260507233029 | 55 | 162 | 0.0 | 0.0 | 0.00 | 0.00 | 0.00 | 51 | 1009.2 |
| 20260507232524 | 56 | 77 | 0.9 | 0.9 | 0.00 | 0.00 | 0.00 | 47 | 1009.3 |
| 20260507232022 | 56 | 111 | 0.9 | 0.9 | 0.00 | 0.00 | 0.00 | 50 | 1009.2 |
| 20260507231518 | 55 | 119 | 0.0 | 0.0 | 0.00 | 0.00 | 0.00 | 47 | 1009.2 |
| 20260507231016 | 56 | 150 | 0.0 | 0.9 | 0.00 | 0.00 | 0.00 | 50 | 1009.1 |
| 20260507230512 | 56 | 253 | 0.9 | 1.7 | 0.00 | 0.00 | 0.00 | 50 | 1008.8 |
| 20260507230009 | 56 | 145 | 0.0 | 2.6 | 0.00 | 0.00 | 0.00 | 46 | 1008.6 |
| 20260507225504 | 57 | 155 | 0.0 | 5.2 | 0.00 | 0.00 | 0.00 | 45 | 1008.6 |
| 20260507225000 | 57 | 210 | 1.7 | 2.6 | 0.00 | 0.00 | 0.00 | 48 | 1008.6 |
| 20260507224456 | 57 | 289 | 1.7 | 5.2 | 0.00 | 0.00 | 0.00 | 47 | 1008.6 |
| 20260507223953 | 58 | 154 | 1.7 | 5.2 | 0.00 | 0.00 | 0.00 | 47 | 1008.9 |
| 20260507223449 | 57 | 210 | 0.9 | 1.7 | 0.00 | 0.00 | 0.00 | 48 | 1008.4 |
| 20260507222946 | 57 | 129 | 0.9 | 1.7 | 0.00 | 0.00 | 0.00 | 48 | 1008.4 |
| 20260507222443 | 57 | 84 | 2.6 | 4.3 | 0.00 | 0.00 | 0.00 | 47 | 1008.3 |
| 20260507221939 | 58 | 138 | 0.9 | 8.7 | 0.00 | 0.00 | 0.00 | 47 | 1008.3 |
| 20260507221436 | 58 | 75 | 1.7 | 1.7 | 0.00 | 0.00 | 0.00 | 48 | 1008.4 |
| 20260507220932 | 58 | 115 | 2.6 | 4.3 | 0.00 | 0.00 | 0.00 | 45 | 1008.1 |
| 20260507220430 | 59 | 191 | 2.6 | 4.3 | 0.00 | 0.00 | 0.00 | 46 | 1008.1 |
| 20260507215927 | 59 | 308 | 2.6 | 8.7 | 0.00 | 0.00 | 0.00 | 48 | 1008.0 |
| 20260507215423 | 60 | 208 | 2.6 | 5.2 | 0.00 | 0.00 | 0.00 | 45 | 1008.0 |
| 20260507214920 | 61 | 213 | 0.9 | 7.0 | 0.00 | 0.00 | 0.00 | 45 | 1007.6 |
| 20260507214418 | 62 | 135 | 0.9 | 4.3 | 0.00 | 0.00 | 0.00 | 47 | 1007.9 |
| 20260507213913 | 61 | 163 | 0.9 | 2.6 | 0.00 | 0.00 | 0.00 | 48 | 1007.6 |
| 20260507213410 | 62 | 120 | 3.5 | 5.2 | 0.00 | 0.00 | 0.00 | 43 | 1007.6 |
| 20260507212907 | 62 | 108 | 1.7 | 5.2 | 0.00 | 0.00 | 0.00 | 43 | 1007.7 |
| 20260507212403 | 61 | 195 | 0.9 | 2.6 | 0.00 | 0.00 | 0.00 | 47 | 1007.8 |
| 20260507211900 | 62 | 69 | 3.5 | 6.1 | 0.00 | 0.00 | 0.00 | 44 | 1007.8 |
| 20260507211356 | 61 | 336 | 1.7 | 7.0 | 0.00 | 0.00 | 0.00 | 47 | 1007.9 |
| 20260507210853 | 61 | 258 | 0.9 | 1.7 | 0.00 | 0.00 | 0.00 | 46 | 1007.8 |
| 20260507210350 | 62 | 267 | 0.9 | 1.7 | 0.00 | 0.00 | 0.00 | 46 | 1007.6 |
| 20260507205847 | 62 | 211 | 0.9 | 2.6 | 0.00 | 0.00 | 0.00 | 46 | 1007.7 |
| 20260507205344 | 62 | 44 | 1.7 | 5.2 | 0.00 | 0.00 | 0.00 | 45 | 1007.6 |
| 20260507204840 | 62 | 74 | 3.5 | 6.1 | 0.00 | 0.00 | 0.00 | 48 | 1007.8 |
| 20260507204337 | 61 | 121 | 0.0 | 1.7 | 0.00 | 0.00 | 0.00 | 47 | 1007.5 |
| 20260507203835 | 64 | 114 | 0.9 | 1.7 | 0.00 | 0.00 | 0.00 | 46 | 1007.7 |
| 20260507203333 | 64 | 95 | 3.5 | 4.3 | 0.00 | 0.00 | 0.00 | 45 | 1007.6 |
| 20260507202828 | 64 | 312 | 1.7 | 5.2 | 0.00 | 0.00 | 0.00 | 46 | 1007.5 |
| 20260507202325 | 64 | 103 | 1.7 | 2.6 | 0.00 | 0.00 | 0.00 | 48 | 1007.5 |
| 20260507201821 | 63 | 145 | 0.9 | 6.1 | 0.00 | 0.00 | 0.00 | 44 | 1007.7 |
| 20260507201317 | 64 | 330 | 1.7 | 7.0 | 0.00 | 0.00 | 0.00 | 46 | 1007.7 |
| 20260507200813 | 64 | 69 | 1.7 | 4.3 | 0.00 | 0.00 | 0.00 | 44 | 1007.7 |
| 20260507200309 | 65 | 73 | 1.7 | 4.3 | 0.00 | 0.00 | 0.00 | 42 | 1007.7 |
| 20260507195805 | 66 | 234 | 0.9 | 5.2 | 0.00 | 0.00 | 0.00 | 42 | 1007.7 |
| 20260507195305 | 65 | 230 | 0.9 | 4.3 | 0.00 | 0.00 | 0.00 | 46 | 1007.6 |
| 20260507194800 | 64 | 6 | 0.9 | 1.7 | 0.00 | 0.00 | 0.00 | 44 | 1007.8 |
| 20260507194256 | 65 | 298 | 1.7 | 6.1 | 0.00 | 0.00 | 0.00 | 43 | 1007.8 |
| 20260507193753 | 64 | 109 | 2.6 | 4.3 | 0.00 | 0.00 | 0.00 | 43 | 1007.8 |
| 20260507193249 | 63 | 112 | 0.0 | 4.3 | 0.00 | 0.00 | 0.00 | 47 | 1007.8 |
| 20260507192745 | 62 | 41 | 1.7 | 1.7 | 0.00 | 0.00 | 0.00 | 47 | 1007.9 |
| 20260507192242 | 64 | 107 | 0.9 | 6.1 | 0.00 | 0.00 | 0.00 | 47 | 1007.9 |
| 20260507191738 | 66 | 223 | 4.3 | 5.2 | 0.00 | 0.00 | 0.00 | 42 | 1007.9 |
| 20260507191235 | 65 | 111 | 3.5 | 4.3 | 0.00 | 0.00 | 0.00 | 47 | 1007.8 |
| 20260507190732 | 63 | 91 | 2.6 | 2.6 | 0.00 | 0.00 | 0.00 | 51 | 1008.0 |
| 20260507190231 | 63 | 177 | 2.6 | 4.3 | 0.00 | 0.00 | 0.00 | 46 | 1008.0 |
| 20260507185729 | 64 | 311 | 1.7 | 4.3 | 0.00 | 0.00 | 0.00 | 48 | 1008.1 |
| 20260507185225 | 66 | 267 | 2.6 | 2.6 | 0.00 | 0.00 | 0.00 | 46 | 1008.0 |
| 20260507184723 | 65 | 313 | 2.6 | 4.3 | 0.00 | 0.00 | 0.00 | 46 | 1008.0 |
| 20260507184221 | 65 | 269 | 1.7 | 1.7 | 0.00 | 0.00 | 0.00 | 50 | 1008.1 |
| 20260507183717 | 64 | 159 | 1.7 | 5.2 | 0.00 | 0.00 | 0.00 | 50 | 1007.9 |
| 20260507183214 | 64 | 116 | 0.9 | 2.6 | 0.00 | 0.00 | 0.00 | 49 | 1008.1 |
| 20260507182711 | 64 | 302 | 4.3 | 5.2 | 0.00 | 0.00 | 0.00 | 51 | 1008.0 |
| 20260507182206 | 62 | 101 | 0.9 | 2.6 | 0.00 | 0.00 | 0.00 | 52 | 1008.1 |
| 20260507181703 | 63 | 179 | 1.7 | 5.2 | 0.00 | 0.00 | 0.00 | 51 | 1008.1 |
| 20260507181200 | 63 | 104 | 1.7 | 6.1 | 0.00 | 0.00 | 0.00 | 56 | 1008.2 |
| 20260507180656 | 62 | 98 | 0.9 | 1.7 | 0.00 | 0.00 | 0.00 | 51 | 1008.3 |
| 20260507180154 | 63 | 114 | 2.6 | 5.2 | 0.00 | 0.00 | 0.00 | 55 | 1008.3 |
| 20260507175649 | 63 | 317 | 2.6 | 4.3 | 0.00 | 0.00 | 0.00 | 52 | 1008.3 |
| 20260507175146 | 62 | 94 | 3.5 | 6.1 | 0.00 | 0.00 | 0.00 | 55 | 1008.4 |
| 20260507174643 | 62 | 145 | 1.7 | 7.0 | 0.00 | 0.00 | 0.00 | 52 | 1008.5 |
| 20260507174142 | 63 | 107 | 2.6 | 4.3 | 0.00 | 0.00 | 0.00 | 53 | 1008.8 |
| 20260507173639 | 64 | 220 | 1.7 | 4.3 | 0.00 | 0.00 | 0.00 | 51 | 1008.8 |
| 20260507173135 | 63 | 230 | 0.9 | 1.7 | 0.00 | 0.00 | 0.00 | 53 | 1008.9 |
| 20260507172632 | 63 | 306 | 2.6 | 4.3 | 0.00 | 0.00 | 0.00 | 55 | 1008.9 |
| 20260507172129 | 63 | 64 | 0.9 | 2.6 | 0.00 | 0.00 | 0.00 | 55 | 1009.0 |
| 20260507171624 | 63 | 171 | 0.0 | 5.2 | 0.00 | 0.00 | 0.00 | 54 | 1009.2 |
| 20260507171121 | 63 | 44 | 2.6 | 6.1 | 0.00 | 0.00 | 0.00 | 53 | 1009.0 |
| 20260507170619 | 63 | 35 | 3.5 | 5.2 | 0.00 | 0.00 | 0.00 | 53 | 1009.0 |
| 20260507170115 | 62 | 104 | 0.9 | 2.6 | 0.00 | 0.00 | 0.00 | 57 | 1009.1 |
| 20260507165611 | 61 | 77 | 2.6 | 6.1 | 0.00 | 0.00 | 0.00 | 56 | 1009.3 |
| 20260507165108 | 62 | 148 | 1.7 | 5.2 | 0.00 | 0.00 | 0.00 | 56 | 1009.4 |
| 20260507164604 | 61 | 141 | 2.6 | 5.2 | 0.00 | 0.00 | 0.00 | 57 | 1009.5 |
| 20260507164101 | 59 | 194 | 0.9 | 5.2 | 0.00 | 0.00 | 0.00 | 60 | 1009.4 |
| 20260507163558 | 59 | 125 | 0.9 | 1.7 | 0.00 | 0.00 | 0.00 | 58 | 1009.7 |
| 20260507163056 | 59 | 335 | 0.9 | 4.3 | 0.00 | 0.00 | 0.00 | 59 | 1009.5 |
| 20260507162555 | 60 | 97 | 2.6 | 4.3 | 0.00 | 0.00 | 0.00 | 58 | 1009.5 |
| 20260507162053 | 60 | 131 | 0.9 | 2.6 | 0.00 | 0.00 | 0.00 | 59 | 1009.7 |
| 20260507161549 | 59 | 147 | 0.9 | 0.9 | 0.00 | 0.00 | 0.00 | 59 | 1009.5 |
| 20260507161046 | 58 | 33 | 0.9 | 2.6 | 0.00 | 0.00 | 0.00 | 61 | 1009.7 |
| 20260507160542 | 59 | 151 | 2.6 | 5.2 | 0.00 | 0.00 | 0.00 | 61 | 1009.7 |
| 20260507160038 | 58 | 179 | 1.7 | 2.6 | 0.00 | 0.00 | 0.00 | 59 | 1009.8 |
| 20260507155534 | 58 | 65 | 3.5 | 5.2 | 0.00 | 0.00 | 0.00 | 61 | 1009.9 |
| 20260507155031 | 56 | 130 | 0.0 | 2.6 | 0.00 | 0.00 | 0.00 | 61 | 1010.0 |
| 20260507154528 | 58 | 115 | 0.9 | 6.1 | 0.00 | 0.00 | 0.00 | 62 | 1010.0 |
| 20260507154025 | 57 | 85 | 1.7 | 4.3 | 0.00 | 0.00 | 0.00 | 66 | 1010.2 |
| 20260507153522 | 56 | 73 | 2.6 | 5.2 | 0.00 | 0.00 | 0.00 | 65 | 1010.2 |
| 20260507153018 | 56 | 97 | 3.5 | 4.3 | 0.00 | 0.00 | 0.00 | 65 | 1010.0 |
| 20260507152514 | 55 | 103 | 5.2 | 6.1 | 0.00 | 0.00 | 0.00 | 65 | 1010.2 |
| 20260507152011 | 54 | 134 | 3.5 | 5.2 | 0.00 | 0.00 | 0.00 | 66 | 1010.4 |
| 20260507151507 | 55 | 128 | 2.6 | 5.2 | 0.00 | 0.00 | 0.00 | 66 | 1010.2 |
| 20260507151004 | 55 | 88 | 4.3 | 7.8 | 0.00 | 0.00 | 0.00 | 67 | 1010.4 |
| 20260507150501 | 55 | 84 | 2.6 | 5.2 | 0.00 | 0.00 | 0.00 | 64 | 1010.1 |
| 20260507145957 | 56 | 80 | 1.7 | 4.3 | 0.00 | 0.00 | 0.00 | 64 | 1010.4 |
| 20260507145452 | 55 | 194 | 0.0 | 1.7 | 0.00 | 0.00 | 0.00 | 61 | 1010.6 |
| 20260507144950 | 55 | 215 | 0.9 | 2.6 | 0.00 | 0.00 | 0.00 | 63 | 1010.6 |
| 20260507144447 | 57 | 69 | 5.2 | 6.1 | 0.00 | 0.00 | 0.00 | 62 | 1010.6 |
| 20260507143943 | 55 | 104 | 0.0 | 1.7 | 0.00 | 0.00 | 0.00 | 62 | 1010.9 |
| 20260507143441 | 55 | 203 | 1.7 | 1.7 | 0.00 | 0.00 | 0.00 | 66 | 1010.6 |
| 20260507142938 | 54 | 134 | 1.7 | 2.6 | 0.00 | 0.00 | 0.00 | 66 | 1010.8 |
| 20260507142433 | 54 | 75 | 1.7 | 2.6 | 0.00 | 0.00 | 0.00 | 64 | 1010.9 |
| 20260507141931 | 53 | 76 | 0.9 | 2.6 | 0.00 | 0.00 | 0.00 | 67 | 1011.0 |
| 20260507141427 | 53 | 143 | 0.9 | 2.6 | 0.00 | 0.00 | 0.00 | 67 | 1011.0 |
| 20260507140924 | 52 | 74 | 3.5 | 4.3 | 0.00 | 0.00 | 0.00 | 68 | 1011.1 |
| 20260507140420 | 51 | 79 | 3.5 | 5.2 | 0.00 | 0.00 | 0.00 | 70 | 1011.3 |
| 20260507135918 | 51 | 62 | 0.9 | 2.6 | 0.00 | 0.00 | 0.00 | 72 | 1011.3 |
| 20260507135414 | 51 | 78 | 3.5 | 5.2 | 0.00 | 0.00 | 0.00 | 71 | 1011.4 |
| 20260507134912 | 50 | 65 | 2.6 | 4.3 | 0.00 | 0.00 | 0.00 | 74 | 1011.2 |
| 20260507134408 | 50 | 65 | 2.6 | 5.2 | 0.00 | 0.00 | 0.00 | 73 | 1011.5 |
| 20260507133904 | 50 | 81 | 0.9 | 2.6 | 0.00 | 0.00 | 0.00 | 74 | 1011.3 |
| 20260507133400 | 51 | 79 | 0.9 | 1.7 | 0.00 | 0.00 | 0.00 | 78 | 1011.4 |
| 20260507132859 | 50 | 91 | 0.9 | 2.6 | 0.00 | 0.00 | 0.00 | 81 | 1011.5 |
| 20260507132355 | 50 | 87 | 1.7 | 1.7 | 0.00 | 0.00 | 0.00 | 81 | 1011.6 |
| 20260507131852 | 50 | 69 | 1.7 | 4.3 | 0.00 | 0.00 | 0.00 | 82 | 1011.4 |
| 20260507131349 | 50 | 58 | 2.6 | 2.6 | 0.00 | 0.00 | 0.00 | 82 | 1011.7 |
| 20260507130846 | 50 | 127 | 0.0 | 0.0 | 0.00 | 0.00 | 0.00 | 82 | 1011.7 |
| 20260507130343 | 50 | 115 | 0.0 | 0.0 | 0.00 | 0.00 | 0.00 | 84 | 1011.7 |
| 20260507125842 | 50 | 118 | 0.0 | 2.6 | 0.00 | 0.00 | 0.00 | 84 | 1012.0 |
| 20260507125339 | 50 | 130 | 0.9 | 0.9 | 0.00 | 0.00 | 0.00 | 85 | 1011.8 |
| 20260507124836 | 49 | 151 | 0.0 | 0.9 | 0.00 | 0.00 | 0.00 | 86 | 1011.7 |
| 20260507124332 | 49 | 82 | 0.9 | 1.7 | 0.00 | 0.00 | 0.00 | 87 | 1011.8 |
| 20260507123831 | 49 | 178 | 0.0 | 0.0 | 0.00 | 0.00 | 0.00 | 88 | 1011.7 |
| 20260507123328 | 49 | 83 | 0.9 | 1.7 | 0.00 | 0.00 | 0.00 | 89 | 1011.4 |
| 20260507122824 | 49 | 86 | 0.9 | 4.3 | 0.00 | 0.00 | 0.00 | 88 | 1011.6 |
| 20260507122319 | 49 | 107 | 0.9 | 2.6 | 0.00 | 0.00 | 0.00 | 88 | 1011.4 |
| 20260507121816 | 49 | 323 | 0.9 | 1.7 | 0.00 | 0.00 | 0.00 | 89 | 1011.4 |
| 20260507121311 | 49 | 89 | 0.9 | 1.7 | 0.00 | 0.00 | 0.00 | 89 | 1011.3 |
| 20260507120808 | 49 | 72 | 0.0 | 0.9 | 0.00 | 0.00 | 0.00 | 89 | 1011.2 |
| 20260507120304 | 49 | 69 | 0.9 | 1.7 | 0.00 | 0.00 | 0.00 | 89 | 1011.0 |
| 20260507115801 | 49 | 80 | 0.9 | 1.7 | 0.00 | 0.00 | 0.00 | 88 | 1011.2 |
| 20260507115256 | 49 | 89 | 0.0 | 0.0 | 0.00 | 0.00 | 0.00 | 88 | 1011.2 |
| 20260507114752 | 49 | 57 | 3.5 | 4.3 | 0.00 | 0.00 | 0.00 | 89 | 1011.1 |
| 20260507114250 | 49 | 111 | 0.0 | 0.9 | 0.00 | 0.00 | 0.00 | 89 | 1011.0 |
| 20260507113747 | 49 | 64 | 1.7 | 2.6 | 0.00 | 0.00 | 0.00 | 89 | 1010.9 |
| 20260507113244 | 49 | 76 | 0.0 | 1.7 | 0.00 | 0.00 | 0.00 | 89 | 1011.1 |
| 20260507112742 | 49 | 74 | 1.7 | 1.7 | 0.00 | 0.00 | 0.00 | 89 | 1010.9 |
| 20260507112238 | 49 | 39 | 0.0 | 0.9 | 0.00 | 0.00 | 0.00 | 89 | 1010.8 |
| 20260507111737 | 49 | 89 | 0.0 | 0.9 | 0.00 | 0.00 | 0.00 | 90 | 1010.8 |
| 20260507111233 | 49 | 82 | 0.9 | 1.7 | 0.00 | 0.00 | 0.00 | 90 | 1010.6 |
| 20260507110728 | 49 | 91 | 0.9 | 0.9 | 0.00 | 0.00 | 0.00 | 90 | 1010.8 |
| 20260507110225 | 49 | 91 | 0.9 | 0.9 | 0.00 | 0.00 | 0.00 | 90 | 1010.5 |
| 20260507105722 | 49 | 312 | 0.0 | 0.0 | 0.00 | 0.00 | 0.00 | 90 | 1010.6 |
| 20260507105218 | 49 | 319 | 0.0 | 0.0 | 0.00 | 0.00 | 0.00 | 91 | 1010.5 |
| 20260507104716 | 49 | 320 | 0.0 | 0.0 | 0.00 | 0.00 | 0.00 | 91 | 1010.9 |
| 20260507104212 | 49 | 320 | 0.0 | 0.9 | 0.00 | 0.00 | 0.00 | 91 | 1010.7 |
| 20260507103708 | 48 | 336 | 0.9 | 0.9 | 0.00 | 0.00 | 0.00 | 90 | 1010.6 |
| 20260507103205 | 48 | 292 | 0.9 | 0.9 | 0.00 | 0.00 | 0.00 | 91 | 1010.0 |
| 20260507102701 | 48 | 319 | 0.0 | 0.0 | 0.00 | 0.00 | 0.00 | 91 | 1010.5 |
| 20260507102158 | 48 | 308 | 0.0 | 0.0 | 0.00 | 0.00 | 0.00 | 91 | 1010.5 |
| 20260507101653 | 48 | 308 | 0.0 | 0.0 | 0.00 | 0.00 | 0.00 | 91 | 1010.5 |
| 20260507101149 | 48 | 307 | 0.9 | 0.9 | 0.00 | 0.00 | 0.00 | 92 | 1010.6 |
| 20260507100647 | 48 | 307 | 0.9 | 0.9 | 0.00 | 0.00 | 0.00 | 92 | 1010.8 |
| 20260507100145 | 48 | 307 | 0.0 | 0.9 | 0.00 | 0.00 | 0.00 | 92 | 1010.4 |
| 20260507095643 | 48 | 314 | 0.0 | 0.9 | 0.00 | 0.00 | 0.00 | 92 | 1010.5 |
| 20260507095139 | 48 | 318 | 1.7 | 1.7 | 0.00 | 0.00 | 0.00 | 93 | 1010.2 |
| 20260507094635 | 48 | 99 | 0.0 | 0.0 | 0.00 | 0.00 | 0.00 | 93 | 1010.2 |
| 20260507094132 | 48 | 189 | 0.0 | 0.9 | 0.00 | 0.00 | 0.00 | 93 | 1010.5 |
| 20260507093630 | 48 | 255 | 0.9 | 1.7 | 0.00 | 0.00 | 0.00 | 93 | 1010.5 |
| 20260507093128 | 48 | 277 | 0.0 | 0.9 | 0.00 | 0.00 | 0.00 | 93 | 1010.4 |
| 20260507092625 | 48 | 275 | 1.7 | 1.7 | 0.00 | 0.00 | 0.00 | 93 | 1010.1 |
| 20260507092121 | 48 | 14 | 1.7 | 1.7 | 0.00 | 0.00 | 0.00 | 92 | 1010.1 |
| 20260507091618 | 48 | 199 | 0.9 | 1.7 | 0.00 | 0.00 | 0.00 | 92 | 1010.4 |
| 20260507091114 | 48 | 112 | 0.9 | 1.7 | 0.00 | 0.00 | 0.00 | 92 | 1010.2 |
| 20260507090610 | 48 | 324 | 1.7 | 2.6 | 0.00 | 0.00 | 0.00 | 91 | 1009.9 |
| 20260507090107 | 48 | 298 | 0.0 | 1.7 | 0.00 | 0.00 | 0.00 | 91 | 1010.1 |
| 20260507085604 | 48 | 298 | 0.9 | 1.7 | 0.00 | 0.00 | 0.00 | 91 | 1010.2 |
| 20260507085101 | 48 | 217 | 0.9 | 0.9 | 0.00 | 0.00 | 0.00 | 91 | 1009.9 |
| 20260507084557 | 48 | 234 | 0.9 | 1.7 | 0.00 | 0.00 | 0.00 | 91 | 1010.2 |
| 20260507084055 | 49 | 135 | 0.0 | 0.9 | 0.00 | 0.00 | 0.00 | 91 | 1009.9 |
| 20260507083550 | 49 | 87 | 0.9 | 0.9 | 0.00 | 0.00 | 0.00 | 91 | 1010.1 |
| 20260507083048 | 49 | 87 | 0.9 | 1.7 | 0.00 | 0.00 | 0.00 | 91 | 1010.1 |
| 20260507082544 | 49 | 83 | 0.9 | 0.9 | 0.00 | 0.00 | 0.00 | 91 | 1010.0 |
| 20260507082041 | 49 | 67 | 0.0 | 2.6 | 0.00 | 0.00 | 0.00 | 91 | 1010.2 |
| 20260507081537 | 49 | 65 | 1.7 | 1.7 | 0.00 | 0.00 | 0.00 | 90 | 1010.0 |
| 20260507081034 | 50 | 53 | 1.7 | 2.6 | 0.00 | 0.00 | 0.00 | 89 | 1010.1 |
| 20260507080529 | 50 | 76 | 2.6 | 2.6 | 0.00 | 0.00 | 0.00 | 89 | 1010.2 |
| 20260507080026 | 50 | 97 | 0.0 | 2.6 | 0.00 | 0.00 | 0.00 | 89 | 1010.1 |
| 20260507075521 | 50 | 92 | 0.9 | 1.7 | 0.00 | 0.00 | 0.00 | 89 | 1010.4 |
| 20260507075018 | 50 | 64 | 1.7 | 1.7 | 0.00 | 0.00 | 0.00 | 89 | 1010.4 |
| 20260507074515 | 50 | 72 | 0.9 | 0.9 | 0.00 | 0.00 | 0.00 | 89 | 1010.5 |
| 20260507074014 | 50 | 94 | 0.9 | 1.7 | 0.00 | 0.00 | 0.00 | 89 | 1010.4 |
| 20260507073509 | 50 | 83 | 3.5 | 4.3 | 0.00 | 0.00 | 0.00 | 89 | 1010.4 |
| 20260507073006 | 50 | 80 | 0.9 | 4.3 | 0.00 | 0.00 | 0.00 | 89 | 1010.2 |
| 20260507072504 | 51 | 102 | 1.7 | 2.6 | 0.00 | 0.00 | 0.00 | 89 | 1009.9 |
| 20260507072000 | 51 | 75 | 0.0 | 4.3 | 0.00 | 0.00 | 0.00 | 88 | 1010.2 |
| 20260507071457 | 51 | 120 | 2.6 | 2.6 | 0.00 | 0.00 | 0.00 | 88 | 1010.1 |
| 20260507070954 | 51 | 95 | 0.0 | 0.9 | 0.00 | 0.00 | 0.00 | 89 | 1010.2 |
| 20260507070451 | 51 | 88 | 2.6 | 4.3 | 0.00 | 0.00 | 0.00 | 89 | 1009.9 |
| 20260507065948 | 51 | 79 | 2.6 | 5.2 | 0.00 | 0.00 | 0.00 | 89 | 1009.9 |
| 20260507065445 | 51 | 96 | 0.0 | 4.3 | 0.00 | 0.00 | 0.00 | 89 | 1010.0 |
| 20260507064942 | 51 | 72 | 2.6 | 4.3 | 0.00 | 0.00 | 0.00 | 90 | 1009.9 |
| 20260507064440 | 51 | 73 | 0.9 | 5.2 | 0.00 | 0.00 | 0.00 | 90 | 1009.8 |
| 20260507063938 | 52 | 40 | 4.3 | 7.0 | 0.00 | 0.00 | 0.00 | 90 | 1009.8 |
| 20260507063434 | 52 | 82 | 3.5 | 6.1 | 0.00 | 0.00 | 0.00 | 90 | 1010.0 |
| 20260507062931 | 53 | 99 | 3.5 | 6.1 | 0.00 | 0.00 | 0.00 | 89 | 1010.0 |
| 20260507062429 | 53 | 101 | 3.5 | 4.3 | 0.00 | 0.00 | 0.00 | 88 | 1009.9 |
| 20260507061926 | 54 | 57 | 3.5 | 4.3 | 0.00 | 0.00 | 0.00 | 88 | 1010.2 |
| 20260507061424 | 54 | 79 | 0.9 | 1.7 | 0.00 | 0.00 | 0.00 | 88 | 1010.0 |
| 20260507060922 | 54 | 112 | 0.0 | 0.0 | 0.00 | 0.00 | 0.00 | 88 | 1010.1 |
| 20260507060418 | 54 | 108 | 0.9 | 1.7 | 0.00 | 0.00 | 0.00 | 88 | 1010.0 |
| 20260507055915 | 54 | 99 | 0.0 | 0.9 | 0.00 | 0.00 | 0.00 | 87 | 1010.1 |
| 20260507055410 | 54 | 69 | 0.9 | 5.2 | 0.00 | 0.00 | 0.00 | 87 | 1010.1 |
| 20260507054908 | 55 | 94 | 0.0 | 1.7 | 0.00 | 0.00 | 0.00 | 88 | 1010.2 |
| 20260507054403 | 55 | 64 | 2.6 | 4.3 | 0.00 | 0.00 | 0.00 | 88 | 1010.4 |
| 20260507053901 | 55 | 86 | 0.0 | 0.0 | 0.00 | 0.00 | 0.00 | 89 | 1010.7 |
| 20260507053359 | 55 | 122 | 0.9 | 0.9 | 0.00 | 0.00 | 0.00 | 88 | 1010.8 |
| 20260507052857 | 55 | 121 | 0.0 | 1.7 | 0.00 | 0.00 | 0.00 | 88 | 1010.5 |
| 20260507052354 | 55 | 73 | 0.9 | 2.6 | 0.00 | 0.00 | 0.00 | 88 | 1010.4 |
| 20260507051851 | 55 | 108 | 0.0 | 0.9 | 0.00 | 0.00 | 0.00 | 89 | 1010.5 |
| 20260507051349 | 55 | 3 | 0.9 | 0.9 | 0.00 | 0.00 | 0.00 | 89 | 1010.4 |
| 20260507050845 | 55 | 287 | 0.9 | 1.7 | 0.00 | 0.00 | 0.00 | 89 | 1010.0 |
| 20260507050342 | 55 | 76 | 1.7 | 4.3 | 0.00 | 0.00 | 0.00 | 89 | 1009.9 |
| 20260507045839 | 55 | 79 | 2.6 | 6.1 | 0.00 | 0.00 | 0.00 | 89 | 1009.9 |
| 20260507045335 | 55 | 77 | 1.7 | 4.3 | 0.00 | 0.00 | 0.00 | 89 | 1010.0 |
| 20260507044833 | 56 | 84 | 2.6 | 4.3 | 0.00 | 0.00 | 0.00 | 89 | 1010.0 |
| 20260507044329 | 56 | 72 | 2.6 | 4.3 | 0.00 | 0.00 | 0.00 | 89 | 1010.0 |